Folgueroles





Hora UTC 11:15
Temperatura 17.6 ºC
Humitat 66.0 %
Pressió 1011.0 hPa
Pluja 0.4 mm
Velocitat vent 4.8 km/h
Direcció vent S

Dades diàries 2021-05-14



Hora UTC (hivern +1h; estiu +2h)
Temperatura (ºC) Humitat (%) Pressió (hPa) Velocitat vent (km/h) Precipitació (mm)
Hora UTC Aire Humitat Pressió Vel. Dir. Vel. Max Dir. Intent. màx 5 min.
00:05 12.6 79.0 1009.5 1.6 SW 1.6 0.0
00:10 12.6 79.0 1009.5 0.0 SW 1.6 0.0
00:15 12.6 79.0 1009.5 0.0 SW 1.6 0.0
00:20 12.6 79.0 1009.4 0.0 SW 0.0 0.0
00:25 12.6 78.0 1009.6 0.0 SW 0.0 0.0
00:30 12.6 78.0 1009.5 0.0 SW 0.0 0.0
00:35 12.6 79.0 1009.3 1.6 SW 6.4 0.0
00:40 12.6 78.0 1009.4 0.0 SSW 6.4 0.0
00:45 12.7 78.0 1009.5 0.0 SW 3.2 0.0
00:50 12.7 78.0 1009.4 0.0 SW 3.2 0.0
00:55 12.7 79.0 1009.4 0.0 SW 0.0 0.0
01:00 12.7 79.0 1009.2 0.0 SW 0.0 0.0
01:05 12.7 79.0 1009.3 0.0 SW 0.0 0.0
01:10 12.7 80.0 1009.2 0.0 SW 0.0 0.0
01:15 12.7 79.0 1009.2 0.0 SSW 3.2 0.0
01:20 12.7 79.0 1009.2 0.0 SSW 3.2 0.0
01:25 12.6 80.0 1009.3 0.0 SSW 1.6 0.0
01:30 12.7 80.0 1009.2 0.0 SSW 1.6 0.0
01:35 12.7 80.0 1009.2 0.0 SSW 1.6 0.0
01:40 12.7 80.0 1009.1 0.0 SSW 1.6 0.0
01:45 12.7 80.0 1009.0 0.0 SSW 0.0 0.0
01:50 12.6 80.0 1009.0 0.0 SSW 0.0 0.0
01:55 12.6 79.0 1009.0 0.0 SSW 0.0 0.0
02:00 12.6 80.0 1009.0 0.0 SSW 0.0 0.0
02:05 12.6 80.0 1009.1 0.0 SSW 0.0 0.0
02:10 12.6 80.0 1009.1 0.0 SSW 0.0 0.0
02:15 12.6 80.0 1009.0 0.0 SSW 0.0 0.0
02:20 12.6 80.0 1009.0 0.0 SSW 0.0 0.0
02:25 12.6 80.0 1009.0 0.0 SSW 0.0 0.0
02:30 12.6 81.0 1008.8 0.0 SSW 0.0 0.0
02:35 12.5 81.0 1008.8 0.0 SSW 0.0 0.0
02:40 12.5 82.0 1008.8 0.0 SSW 0.0 0.0
02:45 12.4 83.0 1008.8 0.0 SSW 0.0 0.0
02:50 12.4 83.0 1008.8 0.0 SSW 0.0 0.0
02:55 12.4 83.0 1008.7 0.0 SSW 0.0 0.0
03:00 12.3 82.0 1008.7 0.0 SSW 0.0 0.0
03:05 12.3 82.0 1008.7 0.0 SSW 0.0 0.0
03:10 12.3 82.0 1008.7 0.0 SSW 0.0 0.0
03:15 12.3 82.0 1008.8 0.0 SSW 0.0 0.0
03:20 12.3 82.0 1008.8 0.0 SSW 0.0 0.0
03:25 12.2 82.0 1008.8 0.0 SSW 0.0 0.0
03:30 12.2 82.0 1008.8 0.0 SSW 0.0 0.0
03:35 12.2 83.0 1008.9 0.0 SW 3.2 0.0
03:40 12.1 84.0 1008.9 0.0 W 4.8 0.0
03:45 11.9 85.0 1008.9 0.0 W 4.8 0.0
03:50 11.9 85.0 1008.9 0.0 W 0.0 0.0
03:55 11.8 85.0 1008.9 0.0 W 0.0 0.0
04:00 11.7 85.0 1008.9 0.0 W 0.0 0.0
04:05 11.6 85.0 1008.8 0.0 W 0.0 0.0
04:10 11.6 86.0 1008.9 0.0 W 0.0 0.0
04:15 11.6 86.0 1008.9 0.0 W 0.0 0.0
04:20 11.6 86.0 1008.9 0.0 W 0.0 0.0
04:25 11.6 87.0 1009.0 0.0 W 0.0 0.0
04:30 11.6 87.0 1008.9 0.0 W 0.0 0.0
04:35 11.5 87.0 1008.9 0.0 W 0.0 0.0
04:40 11.5 87.0 1008.9 0.0 W 0.0 0.0
04:45 11.5 87.0 1009.0 0.0 W 0.0 0.0
04:50 11.5 86.0 1008.9 0.0 W 1.6 0.0
04:55 11.6 87.0 1009.0 0.0 W 0.0 0.0
05:00 11.6 87.0 1009.0 0.0 W 0.0 0.0
05:05 11.5 87.0 1009.0 0.0 W 0.0 0.0
05:10 11.5 87.0 1009.1 0.0 W 0.0 0.0
05:15 11.4 87.0 1009.1 0.0 W 0.0 0.0
05:20 11.4 87.0 1009.2 0.0 W 0.0 0.0
05:25 11.3 87.0 1009.3 0.0 W 0.0 0.0
05:30 11.4 87.0 1009.3 0.0 W 0.0 0.0
05:35 11.4 87.0 1009.2 0.0 W 0.0 0.0
05:40 11.6 87.0 1009.3 0.0 W 0.0 0.0
05:45 11.6 87.0 1009.4 1.6 W 3.2 0.0
05:50 11.6 87.0 1009.5 0.0 WNW 3.2 0.0
05:55 11.6 86.0 1009.5 0.0 WNW 3.2 0.0
06:00 11.4 86.0 1009.5 0.0 WNW 0.0 0.0
06:05 11.5 86.0 1009.6 0.0 WNW 0.0 0.0
06:10 11.4 87.0 1009.6 0.0 WNW 0.0 0.0
06:15 11.4 87.0 1009.7 0.0 WNW 0.0 0.0
06:20 11.3 87.0 1009.8 0.0 WNW 0.0 0.2
06:25 11.3 88.0 1009.8 0.0 WNW 0.0 0.0
06:30 11.2 87.0 1009.8 0.0 WNW 0.0 0.2
06:35 11.2 88.0 1009.8 0.0 WNW 0.0 0.0
06:40 11.2 88.0 1009.9 0.0 WNW 0.0 0.0
06:45 11.2 89.0 1010.0 1.6 WNW 3.2 0.0
06:50 11.2 89.0 1010.2 0.0 WNW 3.2 0.0
06:55 11.2 89.0 1010.2 0.0 WNW 3.2 0.0
07:00 11.2 89.0 1010.3 0.0 WNW 3.2 0.0
07:05 11.2 89.0 1010.3 0.0 WNW 0.0 0.0
07:10 11.2 90.0 1010.4 0.0 WNW 0.0 0.0
07:15 11.2 90.0 1010.4 0.0 WNW 0.0 0.0
07:20 11.3 90.0 1010.6 0.0 WNW 0.0 0.0
07:25 11.4 89.0 1010.6 0.0 SSW 6.4 0.0
07:30 11.4 90.0 1010.6 0.0 S 11.3 0.0
07:35 11.5 90.0 1010.5 9.7 SSW 12.9 0.0
07:40 11.5 89.0 1010.4 0.0 S 12.9 0.0
07:45 11.5 88.0 1010.4 1.6 S 12.9 0.0
07:50 11.5 89.0 1010.5 8.0 SSW 12.9 0.0
07:55 11.5 89.0 1010.8 8.0 S 11.3 0.0
08:00 11.5 89.0 1010.8 9.7 SSE 11.3 0.0
08:05 11.7 89.0 1011.0 4.8 S 9.7 0.0
08:10 11.9 89.0 1011.1 4.8 SW 8.0 0.0
08:15 12.1 88.0 1011.1 3.2 WNW 8.0 0.0
08:20 12.3 88.0 1011.0 3.2 S 8.0 0.0
08:25 12.8 88.0 1011.0 8.0 S 9.7 0.0
08:30 13.0 85.0 1010.9 11.3 SSW 11.3 0.0
08:35 13.2 86.0 1010.9 4.8 W 11.3 0.0
08:40 13.4 85.0 1011.0 0.0 S 9.7 0.0
08:45 13.7 83.0 1011.0 1.6 SSW 9.7 0.0
08:50 13.9 84.0 1010.9 0.0 S 8.0 0.0
08:55 14.2 83.0 1010.9 6.4 W 11.3 0.0
09:00 14.3 80.0 1010.9 9.7 S 12.9 0.0
09:05 14.6 80.0 1010.8 0.0 ENE 11.3 0.0
09:10 14.8 80.0 1010.8 1.6 SW 8.0 0.0
09:15 15.1 78.0 1010.9 0.0 SSW 9.7 0.0
09:20 15.2 76.0 1010.9 3.2 W 11.3 0.0
09:25 15.3 75.0 1011.0 3.2 WSW 14.5 0.0
09:30 15.3 74.0 1011.0 4.8 W 14.5 0.0
09:35 15.3 74.0 1011.0 8.0 WNW 17.7 0.0
09:40 15.4 76.0 1011.0 3.2 WNW 17.7 0.0
09:45 15.7 72.0 1011.1 0.0 SW 8.0 0.0
09:50 16.0 74.0 1011.1 8.0 SSW 16.1 0.0
09:55 16.0 72.0 1011.1 1.6 WNW 14.5 0.0
10:00 16.1 72.0 1011.2 1.6 ESE 14.5 0.0
10:05 16.2 72.0 1011.2 3.2 SSE 12.9 0.0
10:10 16.4 71.0 1011.1 0.0 ESE 12.9 0.0
10:15 16.6 69.0 1011.0 6.4 WNW 12.9 0.0
10:20 16.7 70.0 1011.0 0.0 SSW 16.1 0.0
10:25 16.8 70.0 1011.0 3.2 SSW 19.3 0.0
10:30 16.9 69.0 1011.1 3.2 W 19.3 0.0
10:35 17.1 68.0 1011.2 0.0 W 17.7 0.0
10:40 17.3 67.0 1011.1 0.0 S 17.7 0.0
10:45 17.3 66.0 1011.3 0.0 W 12.9 0.0
10:50 17.4 69.0 1011.2 0.0 SSW 14.5 0.0
10:55 17.4 67.0 1011.2 1.6 ESE 17.7 0.0
11:00 17.6 68.0 1011.1 0.0 NE 17.7 0.0
11:05 17.6 65.0 1011.0 3.2 S 24.1 0.0
11:10 17.7 66.0 1011.0 1.6 SW 24.1 0.0
11:15 17.6 66.0 1011.0 4.8 S 20.9 0.0
Màxima 17.7 90.0 1011.3 11.3 SSW 24.1 0.2
Mínima 11.2 65.0 1008.7
Total 0.4